When you browse on this site, cookies collect data to enhance your experience and personalize the content and advertising you see.
Visit our Privacy Policy to learn more. By continuing to use the site, you agree to this use of cookies and data.
  • în România
  • Lista ţărilor
  • Pe 7 zile
  • Temperatura apei
  • Meteo pe hartă
  • Widget-uri
  • user-avatar
    Intrare

    Meteo pe oră la Bagdad

    Astăzi, 24 August, Sâmbătă

    Timp Temperatura Precipitaţii Vânt Presiune Umiditate
    00:00 +36°C° 0 mm 4 m/s 748 mmHg 15%
    01:00 +36°C° 0 mm 4 m/s 748 mmHg 16%
    02:00 +35°C° 0 mm 4 m/s 748 mmHg 16%
    03:00 +35°C° 0 mm 4 m/s 748 mmHg 17%
    04:00 +35°C° 0 mm 4 m/s 749 mmHg 17%
    05:00 +35°C° 0 mm 4 m/s 749 mmHg 17%
    06:00 +35°C° 0 mm 3 m/s 750 mmHg 17%
    07:00 +38°C° 0 mm 3 m/s 750 mmHg 14%
    08:00 +42°C° 0 mm 4 m/s 750 mmHg 11%
    09:00 +45°C° 0 mm 4 m/s 750 mmHg 9%
    10:00 +47°C° 0 mm 4 m/s 750 mmHg 8%
    11:00 +49°C° 0 mm 4 m/s 750 mmHg 8%
    12:00 +51°C° 0 mm 4 m/s 750 mmHg 7%
    13:00 +51°C° 0 mm 4 m/s 749 mmHg 7%
    14:00 +52°C° 0 mm 4 m/s 749 mmHg 7%
    15:00 +52°C° 0 mm 4 m/s 748 mmHg 7%
    16:00 +51°C° 0 mm 4 m/s 748 mmHg 8%
    17:00 +50°C° 0 mm 4 m/s 748 mmHg 9%
    18:00 +49°C° 0 mm 4 m/s 748 mmHg 9%
    19:00 +47°C° 0 mm 4 m/s 748 mmHg 11%
    20:00 +44°C° 0 mm 4 m/s 748 mmHg 12%
    21:00 +42°C° 0 mm 4 m/s 748 mmHg 13%
    22:00 +41°C° 0 mm 4 m/s 748 mmHg 14%
    23:00 +41°C° 0 mm 4 m/s 748 mmHg 14%

    Mâine, 25 August, Duminică

    Timp Temperatura Precipitaţii Vânt Presiune Umiditate
    00:00 +40°C° 0 mm 4 m/s 748 mmHg 15%
    01:00 +40°C° 0 mm 4 m/s 748 mmHg 15%
    02:00 +38°C° 0 mm 4 m/s 748 mmHg 16%
    03:00 +38°C° 0 mm 4 m/s 747 mmHg 17%
    04:00 +37°C° 0 mm 3 m/s 748 mmHg 17%
    05:00 +37°C° 0 mm 3 m/s 748 mmHg 17%
    06:00 +37°C° 0 mm 3 m/s 748 mmHg 18%
    07:00 +40°C° 0 mm 3 m/s 748 mmHg 15%
    08:00 +43°C° 0 mm 2 m/s 748 mmHg 13%
    09:00 +47°C° 0 mm 2 m/s 749 mmHg 11%
    10:00 +48°C° 0 mm 2 m/s 748 mmHg 10%
    11:00 +49°C° 0 mm 2 m/s 748 mmHg 9%
    12:00 +51°C° 0 mm 2 m/s 748 mmHg 8%
    13:00 +52°C° 0 mm 3 m/s 747 mmHg 8%
    14:00 +53°C° 0 mm 4 m/s 747 mmHg 7%
    15:00 +53°C° 0 mm 4 m/s 747 mmHg 7%
    16:00 +52°C° 0 mm 4 m/s 746 mmHg 7%
    17:00 +51°C° 0 mm 4 m/s 746 mmHg 8%
    18:00 +50°C° 0 mm 4 m/s 746 mmHg 8%
    19:00 +47°C° 0 mm 3 m/s 746 mmHg 9%
    20:00 +43°C° 0 mm 2 m/s 746 mmHg 11%
    21:00 +41°C° 0 mm 1 m/s 747 mmHg 12%
    22:00 +41°C° 0 mm 2 m/s 747 mmHg 12%
    23:00 +41°C° 0 mm 2 m/s 747 mmHg 12%

    Poimâine, 26 August, Luni

    Timp Temperatura Precipitaţii Vânt Presiune Umiditate
    00:00 +40°C° 0 mm 3 m/s 747 mmHg 12%
    01:00 +40°C° 0 mm 3 m/s 747 mmHg 13%
    02:00 +39°C° 0 mm 3 m/s 747 mmHg 13%
    03:00 +38°C° 0 mm 4 m/s 747 mmHg 14%
    04:00 +38°C° 0 mm 4 m/s 747 mmHg 14%
    05:00 +37°C° 0 mm 4 m/s 747 mmHg 15%
    06:00 +37°C° 0 mm 3 m/s 747 mmHg 15%
    07:00 +41°C° 0 mm 4 m/s 748 mmHg 13%
    08:00 +44°C° 0 mm 4 m/s 748 mmHg 11%
    09:00 +48°C° 0 mm 4 m/s 748 mmHg 9%
    10:00 +50°C° 0 mm 4 m/s 748 mmHg 8%
    11:00 +52°C° 0 mm 4 m/s 748 mmHg 7%
    12:00 +53°C° 0 mm 4 m/s 748 mmHg 6%
    13:00 +55°C° 0 mm 5 m/s 747 mmHg 6%
    14:00 +55°C° 0 mm 5 m/s 747 mmHg 6%
    15:00 +55°C° 0 mm 6 m/s 746 mmHg 5%
    16:00 +54°C° 0 mm 6 m/s 746 mmHg 6%
    17:00 +53°C° 0 mm 7 m/s 746 mmHg 7%
    18:00 +52°C° 0 mm 7 m/s 746 mmHg 7%
    19:00 +49°C° 0 mm 6 m/s 746 mmHg 8%
    20:00 +47°C° 0 mm 6 m/s 747 mmHg 9%
    21:00 +45°C° 0 mm 5 m/s 747 mmHg 10%
    22:00 +43°C° 0 mm 5 m/s 747 mmHg 11%
    23:00 +43°C° 0 mm 5 m/s 747 mmHg 12%

    27 August, Marţi

    Timp Temperatura Precipitaţii Vânt Presiune Umiditate
    00:00 +42°C° 0 mm 5 m/s 747 mmHg 13%
    01:00 +41°C° 0 mm 5 m/s 747 mmHg 14%
    02:00 +40°C° 0 mm 5 m/s 747 mmHg 15%
    03:00 +39°C° 0 mm 5 m/s 747 mmHg 15%
    04:00 +39°C° 0 mm 5 m/s 747 mmHg 15%
    05:00 +39°C° 0 mm 5 m/s 747 mmHg 15%
    06:00 +39°C° 0 mm 5 m/s 747 mmHg 15%
    07:00 +42°C° 0 mm 4 m/s 747 mmHg 13%
    08:00 +45°C° 0 mm 4 m/s 748 mmHg 11%
    09:00 +48°C° 0 mm 4 m/s 748 mmHg 9%
    10:00 +50°C° 0 mm 4 m/s 748 mmHg 8%
    11:00 +52°C° 0 mm 4 m/s 747 mmHg 7%
    12:00 +55°C° 0 mm 4 m/s 747 mmHg 6%
    13:00 +55°C° 0 mm 5 m/s 747 mmHg 6%
    14:00 +55°C° 0 mm 6 m/s 746 mmHg 6%
    15:00 +55°C° 0 mm 6 m/s 746 mmHg 6%
    16:00 +55°C° 0 mm 7 m/s 746 mmHg 6%
    17:00 +53°C° 0 mm 7 m/s 746 mmHg 7%
    18:00 +52°C° 0 mm 7 m/s 746 mmHg 8%
    19:00 +49°C° 0 mm 6 m/s 746 mmHg 8%
    20:00 +47°C° 0 mm 6 m/s 746 mmHg 9%
    21:00 +46°C° 0 mm 5 m/s 747 mmHg 10%
    22:00 +45°C° 0 mm 5 m/s 747 mmHg 12%
    23:00 +44°C° 0 mm 6 m/s 747 mmHg 13%

    28 August, Miercuri

    Timp Temperatura Precipitaţii Vânt Presiune Umiditate
    00:00 +42°C° 0 mm 6 m/s 747 mmHg 14%
    01:00 +41°C° 0 mm 6 m/s 747 mmHg 15%
    02:00 +41°C° 0 mm 6 m/s 747 mmHg 15%
    03:00 +40°C° 0 mm 6 m/s 747 mmHg 16%
    04:00 +39°C° 0 mm 6 m/s 747 mmHg 16%
    05:00 +39°C° 0 mm 5 m/s 747 mmHg 17%
    06:00 +37°C° 0 mm 4 m/s 747 mmHg 17%
    07:00 +41°C° 0 mm 4 m/s 747 mmHg 14%
    08:00 +44°C° 0 mm 4 m/s 747 mmHg 12%
    09:00 +48°C° 0 mm 4 m/s 748 mmHg 9%
    10:00 +50°C° 0 mm 3 m/s 747 mmHg 9%
    11:00 +51°C° 0 mm 3 m/s 747 mmHg 8%
    12:00 +52°C° 0 mm 2 m/s 747 mmHg 7%
    13:00 +53°C° 0 mm 3 m/s 747 mmHg 7%
    14:00 +55°C° 0 mm 4 m/s 746 mmHg 6%
    15:00 +55°C° 0 mm 4 m/s 746 mmHg 6%
    16:00 +54°C° 0 mm 5 m/s 746 mmHg 7%
    17:00 +53°C° 0 mm 6 m/s 746 mmHg 7%
    18:00 +51°C° 0 mm 6 m/s 746 mmHg 8%
    19:00 +48°C° 0 mm 5 m/s 746 mmHg 9%
    20:00 +47°C° 0 mm 5 m/s 746 mmHg 11%
    21:00 +44°C° 0 mm 4 m/s 747 mmHg 12%
    22:00 +43°C° 0 mm 4 m/s 747 mmHg 12%
    23:00 +42°C° 0 mm 4 m/s 747 mmHg 13%

    29 August, Joi

    Timp Temperatura Precipitaţii Vânt Presiune Umiditate
    00:00 +41°C° 0 mm 4 m/s 747 mmHg 14%
    01:00 +41°C° 0 mm 4 m/s 747 mmHg 14%
    02:00 +40°C° 0 mm 4 m/s 747 mmHg 14%
    03:00 +38°C° 0 mm 4 m/s 747 mmHg 15%
    04:00 +38°C° 0 mm 4 m/s 747 mmHg 15%
    05:00 +38°C° 0 mm 4 m/s 747 mmHg 15%
    06:00 +38°C° 0 mm 3 m/s 747 mmHg 15%
    07:00 +42°C° 0 mm 3 m/s 748 mmHg 13%
    08:00 +45°C° 0 mm 3 m/s 748 mmHg 11%
    09:00 +48°C° 0 mm 3 m/s 748 mmHg 8%
    10:00 +50°C° 0 mm 3 m/s 748 mmHg 8%
    11:00 +51°C° 0 mm 2 m/s 747 mmHg 7%
    12:00 +52°C° 0 mm 2 m/s 747 mmHg 6%
    13:00 +53°C° 0 mm 2 m/s 747 mmHg 6%
    14:00 +53°C° 0 mm 2 m/s 746 mmHg 6%
    15:00 +53°C° 0 mm 2 m/s 746 mmHg 5%
    16:00 +53°C° 0 mm 3 m/s 746 mmHg 6%
    17:00 +52°C° 0 mm 3 m/s 745 mmHg 6%
    18:00 +51°C° 0 mm 4 m/s 745 mmHg 7%
    19:00 +49°C° 0 mm 4 m/s 745 mmHg 8%
    20:00 +48°C° 0 mm 4 m/s 746 mmHg 8%
    21:00 +45°C° 0 mm 4 m/s 746 mmHg 9%
    22:00 +44°C° 0 mm 4 m/s 746 mmHg 10%
    23:00 +43°C° 0 mm 3 m/s 746 mmHg 10%
    Arată mai mult